RVR12T EGKB-EGGP

Flight info

Callsign RVR12T
Flight time 0h 51m
Altitude 24000
Route DCT DET N57 WELIN T420 ELVOS ELVOS1L
Aircraft PC12/L-V/N

Departure

Time 2026-04-17 21:04
Airport London Biggin Hill Airport (EGKB)

Arrival

Time 2026-04-17 21:56
Airport Liverpool John Lennon Airport (EGGP)
Time Latitude Longitude Altitude Speed Heading
2026-04-17 20:49 51.33125 0.02933 571 ft 0 kts 21°
2026-04-17 20:57 51.33178 0.03011 564 ft 20 kts 52°
2026-04-17 20:57 51.33314 0.03145 561 ft 22 kts 27°
2026-04-17 20:57 51.33404 0.03318 548 ft 22 kts 24°
2026-04-17 20:58 51.33570 0.03442 536 ft 30 kts 28°
2026-04-17 20:58 51.33779 0.03608 523 ft 29 kts 25°
2026-04-17 20:58 51.33803 0.03627 521 ft 0 kts 26°
2026-04-17 21:03 51.33834 0.03663 519 ft 18 kts 58°
2026-04-17 21:03 51.33788 0.03775 524 ft 16 kts 204°
2026-04-17 21:03 51.33570 0.03611 540 ft 53 kts 206°
2026-04-17 21:03 51.33148 0.03285 571 ft 79 kts 206°
2026-04-17 21:04 51.32594 0.02859 613 ft 96 kts 204°
2026-04-17 21:04 51.31975 0.02385 795 ft 99 kts 209°
2026-04-17 21:04 51.31739 0.01365 989 ft 117 kts 281°
2026-04-17 21:04 51.32377 0.00511 1273 ft 131 kts 338°
2026-04-17 21:05 51.33267 0.00096 1585 ft 133 kts 336°
2026-04-17 21:05 51.34213 -0.00266 1708 ft 161 kts 354°
2026-04-17 21:05 51.35203 0.00624 2070 ft 181 kts 55°
2026-04-17 21:05 51.35450 0.02658 2204 ft 199 kts 102°
2026-04-17 21:06 51.34927 0.04737 2353 ft 204 kts 133°
2026-04-17 21:06 51.33959 0.06459 2364 ft 215 kts 145°
2026-04-17 21:06 51.32877 0.08170 2414 ft 225 kts 145°
2026-04-17 21:06 51.31771 0.09991 2373 ft 239 kts 132°
2026-04-17 21:07 51.31192 0.12503 2351 ft 243 kts 102°
2026-04-17 21:07 51.31436 0.15155 2346 ft 243 kts 72°
2026-04-17 21:07 51.32182 0.17556 2407 ft 238 kts 64°
2026-04-17 21:07 51.32967 0.19891 2406 ft 239 kts 65°
2026-04-17 21:08 51.33436 0.22396 2438 ft 236 kts 91°
2026-04-17 21:08 51.33411 0.24993 2415 ft 234 kts 98°
2026-04-17 21:08 51.33338 0.27612 2406 ft 233 kts 98°
2026-04-17 21:08 51.33273 0.30200 2397 ft 233 kts 98°
2026-04-17 21:09 51.33225 0.32680 2490 ft 217 kts 98°
2026-04-17 21:09 51.33186 0.35091 2922 ft 213 kts 97°
2026-04-17 21:09 51.33149 0.37432 3353 ft 210 kts 97°
2026-04-17 21:09 51.33112 0.39758 3790 ft 207 kts 97°
2026-04-17 21:10 51.33070 0.42027 4229 ft 204 kts 97°
2026-04-17 21:10 51.33022 0.44270 4646 ft 204 kts 97°
2026-04-17 21:10 51.32963 0.46601 4894 ft 211 kts 98°
2026-04-17 21:10 51.32900 0.48961 5147 ft 217 kts 97°
2026-04-17 21:11 51.32854 0.50594 5324 ft 220 kts 98°
2026-04-17 21:11 51.32760 0.53843 5667 ft 223 kts 98°
2026-04-17 21:11 51.32676 0.56342 5940 ft 224 kts 99°
2026-04-17 21:11 51.32856 0.58826 6095 ft 232 kts 72°
2026-04-17 21:12 51.33426 0.60294 6199 ft 236 kts 50°
2026-04-17 21:12 51.34802 0.61693 6350 ft 237 kts 17°
2026-04-17 21:12 51.36432 0.61778 6695 ft 233 kts 345°
2026-04-17 21:12 51.37776 0.60549 6986 ft 220 kts 312°
2026-04-17 21:13 51.38651 0.58597 7378 ft 211 kts 300°
2026-04-17 21:13 51.39411 0.56651 7825 ft 205 kts 300°
2026-04-17 21:13 51.40162 0.54734 8263 ft 203 kts 300°
2026-04-17 21:13 51.40914 0.52829 8710 ft 201 kts 300°
2026-04-17 21:14 51.41665 0.50935 9165 ft 200 kts 300°
2026-04-17 21:14 51.42416 0.49050 9627 ft 200 kts 300°
2026-04-17 21:14 51.43161 0.47195 10081 ft 199 kts 300°
2026-04-17 21:14 51.43919 0.45316 10512 ft 199 kts 300°
2026-04-17 21:15 51.44669 0.43465 10868 ft 202 kts 300°
2026-04-17 21:15 51.45416 0.41511 11198 ft 205 kts 297°
2026-04-17 21:15 51.46194 0.39576 11570 ft 210 kts 304°
2026-04-17 21:15 51.47226 0.37892 11959 ft 215 kts 316°
2026-04-17 21:16 51.48420 0.36387 12223 ft 222 kts 319°
2026-04-17 21:16 51.49651 0.34837 12472 ft 227 kts 318°
2026-04-17 21:16 51.50888 0.33222 12728 ft 231 kts 317°
2026-04-17 21:16 51.52149 0.31570 12976 ft 234 kts 317°
2026-04-17 21:17 51.53416 0.29915 13241 ft 237 kts 318°
2026-04-17 21:17 51.54699 0.28240 13508 ft 239 kts 318°
2026-04-17 21:17 51.55991 0.26550 13766 ft 240 kts 318°
2026-04-17 21:17 51.57291 0.24849 14024 ft 242 kts 318°
2026-04-17 21:18 51.58595 0.23140 14258 ft 243 kts 317°
2026-04-17 21:18 51.59917 0.21406 14483 ft 244 kts 317°
2026-04-17 21:18 51.61235 0.19675 14718 ft 245 kts 317°
2026-04-17 21:18 51.62559 0.17938 14949 ft 245 kts 317°
2026-04-17 21:19 51.63879 0.16202 15186 ft 246 kts 317°
2026-04-17 21:19 51.65162 0.14383 15392 ft 244 kts 310°
2026-04-17 21:19 51.66340 0.12417 15626 ft 244 kts 310°
2026-04-17 21:19 51.67401 0.10333 15781 ft 238 kts 294°
2026-04-17 21:20 51.67990 0.07857 15992 ft 237 kts 287°
2026-04-17 21:20 51.68219 0.07062 16103 ft 240 kts 295°
2026-04-17 21:20 51.72122 0.02069 16879 ft 250 kts 321°
2026-04-17 21:21 51.73503 0.00568 17117 ft 250 kts 321°
2026-04-17 21:21 51.74946 -0.00988 17374 ft 250 kts 321°
2026-04-17 21:21 51.76405 -0.02553 17625 ft 250 kts 321°
2026-04-17 21:21 51.77841 -0.04087 17879 ft 250 kts 321°
2026-04-17 21:22 51.79288 -0.05624 18140 ft 250 kts 321°
2026-04-17 21:22 51.80756 -0.07174 18396 ft 251 kts 321°
2026-04-17 21:22 51.81741 -0.08210 18552 ft 251 kts 321°
2026-04-17 21:22 51.83209 -0.09745 18780 ft 251 kts 321°
2026-04-17 21:23 51.84670 -0.11269 19046 ft 251 kts 321°
2026-04-17 21:23 51.86154 -0.12814 19274 ft 251 kts 321°
2026-04-17 21:23 51.87605 -0.14313 19509 ft 251 kts 321°
2026-04-17 21:23 51.89081 -0.15831 19739 ft 251 kts 321°
2026-04-17 21:24 51.90551 -0.17337 19971 ft 251 kts 321°
2026-04-17 21:24 51.92043 -0.18858 20211 ft 251 kts 321°
2026-04-17 21:24 51.93516 -0.20353 20446 ft 251 kts 321°
2026-04-17 21:24 51.94985 -0.21836 20679 ft 251 kts 321°
2026-04-17 21:25 51.96466 -0.23328 20923 ft 250 kts 320°
2026-04-17 21:25 51.97920 -0.24887 21154 ft 249 kts 318°
2026-04-17 21:25 51.99352 -0.26471 21403 ft 248 kts 317°
2026-04-17 21:25 52.00772 -0.28040 21647 ft 247 kts 317°
2026-04-17 21:26 52.02195 -0.29605 21893 ft 247 kts 317°
2026-04-17 21:26 52.03611 -0.31150 22141 ft 246 kts 317°
2026-04-17 21:26 52.05052 -0.32710 22396 ft 245 kts 317°
2026-04-17 21:26 52.06445 -0.34234 22639 ft 243 kts 316°
2026-04-17 21:27 52.07844 -0.35817 22910 ft 245 kts 318°
2026-04-17 21:27 52.09297 -0.37246 23181 ft 246 kts 321°
2026-04-17 21:27 52.10792 -0.38593 23450 ft 247 kts 323°
2026-04-17 21:27 52.12326 -0.39843 23718 ft 247 kts 325°
2026-04-17 21:28 52.13899 -0.40991 23949 ft 248 kts 328°
2026-04-17 21:28 52.15486 -0.42074 24104 ft 246 kts 324°
2026-04-17 21:28 52.16968 -0.43470 24132 ft 248 kts 318°
2026-04-17 21:28 52.18441 -0.45004 24132 ft 255 kts 317°
2026-04-17 21:29 52.19971 -0.46607 24136 ft 261 kts 317°
2026-04-17 21:29 52.21502 -0.48220 24138 ft 266 kts 317°
2026-04-17 21:29 52.23065 -0.49875 24140 ft 270 kts 317°
2026-04-17 21:29 52.24648 -0.51559 24140 ft 274 kts 317°
2026-04-17 21:30 52.26271 -0.53288 24133 ft 276 kts 318°
2026-04-17 21:30 52.27875 -0.54999 24129 ft 278 kts 317°
2026-04-17 21:30 52.29500 -0.56731 24122 ft 280 kts 317°
2026-04-17 21:30 52.31127 -0.58467 24122 ft 281 kts 318°
2026-04-17 21:31 52.32757 -0.60207 24124 ft 281 kts 318°
2026-04-17 21:31 52.34398 -0.61958 24120 ft 282 kts 318°
2026-04-17 21:31 52.36051 -0.63721 24122 ft 283 kts 318°
2026-04-17 21:31 52.37699 -0.65481 24123 ft 283 kts 318°
2026-04-17 21:32 52.39351 -0.67244 24120 ft 283 kts 318°
2026-04-17 21:32 52.40994 -0.68999 24124 ft 283 kts 317°
2026-04-17 21:32 52.42648 -0.70768 24121 ft 284 kts 318°
2026-04-17 21:32 52.44303 -0.72538 24119 ft 284 kts 318°
2026-04-17 21:33 52.45956 -0.74306 24121 ft 284 kts 318°
2026-04-17 21:33 52.47607 -0.76074 24122 ft 284 kts 318°
2026-04-17 21:33 52.49270 -0.77857 24117 ft 284 kts 317°
2026-04-17 21:33 52.50914 -0.79619 24119 ft 284 kts 318°
2026-04-17 21:34 52.52561 -0.81441 24094 ft 279 kts 313°
2026-04-17 21:34 52.53935 -0.83569 24112 ft 270 kts 304°
2026-04-17 21:34 52.56421 -0.88029 24118 ft 268 kts 303°
2026-04-17 21:35 52.57666 -0.90297 24118 ft 269 kts 303°
2026-04-17 21:35 52.58918 -0.92582 24112 ft 267 kts 302°
2026-04-17 21:35 52.60055 -0.94990 24109 ft 261 kts 296°
2026-04-17 21:35 52.61059 -0.97457 24119 ft 260 kts 294°
2026-04-17 21:36 52.62035 -0.99938 24122 ft 259 kts 294°
2026-04-17 21:36 52.63012 -1.02436 24116 ft 260 kts 294°
2026-04-17 21:36 52.63986 -1.04935 24118 ft 260 kts 294°
2026-04-17 21:36 52.64968 -1.07455 24117 ft 260 kts 294°
2026-04-17 21:37 52.65910 -1.09982 24119 ft 258 kts 291°
2026-04-17 21:37 52.66802 -1.12536 24118 ft 257 kts 291°
2026-04-17 21:37 52.67685 -1.15093 24120 ft 257 kts 290°
2026-04-17 21:37 52.68568 -1.17661 24120 ft 257 kts 290°
2026-04-17 21:38 52.69455 -1.20243 24117 ft 257 kts 290°
2026-04-17 21:38 52.70329 -1.22793 24122 ft 257 kts 290°
2026-04-17 21:38 52.71216 -1.25381 24120 ft 257 kts 290°
2026-04-17 21:38 52.72091 -1.27936 24094 ft 259 kts 291°
2026-04-17 21:39 52.72985 -1.30565 23848 ft 267 kts 290°
2026-04-17 21:39 52.73906 -1.33297 23611 ft 276 kts 292°
2026-04-17 21:39 52.75141 -1.35830 23427 ft 293 kts 308°
2026-04-17 21:39 52.76812 -1.37870 23241 ft 308 kts 322°
2026-04-17 21:40 52.78743 -1.39563 22978 ft 314 kts 326°
2026-04-17 21:40 52.80621 -1.41339 22624 ft 309 kts 317°
2026-04-17 21:40 52.82111 -1.43771 22213 ft 297 kts 299°
2026-04-17 21:40 52.83129 -1.46723 21880 ft 293 kts 291°
2026-04-17 21:41 52.84060 -1.49689 21602 ft 292 kts 291°
2026-04-17 21:41 52.85046 -1.52625 21369 ft 294 kts 294°
2026-04-17 21:41 52.86148 -1.55510 21103 ft 296 kts 297°
2026-04-17 21:41 52.87303 -1.58362 20833 ft 296 kts 298°
2026-04-17 21:42 52.88443 -1.61156 20566 ft 297 kts 298°
2026-04-17 21:42 52.89608 -1.64012 20304 ft 297 kts 298°
2026-04-17 21:42 52.90753 -1.66812 20133 ft 296 kts 299°
2026-04-17 21:42 52.92108 -1.69362 20045 ft 299 kts 309°
2026-04-17 21:43 52.93661 -1.71792 19522 ft 310 kts 311°
2026-04-17 21:43 52.95276 -1.74241 18955 ft 318 kts 312°
2026-04-17 21:43 52.96889 -1.76683 18386 ft 317 kts 312°
2026-04-17 21:43 52.98518 -1.79153 17742 ft 313 kts 312°
2026-04-17 21:44 53.00113 -1.81576 17139 ft 310 kts 312°
2026-04-17 21:44 53.01685 -1.83971 16625 ft 307 kts 312°
2026-04-17 21:44 53.03268 -1.86387 16105 ft 304 kts 312°
2026-04-17 21:44 53.04637 -1.88484 15661 ft 301 kts 312°
2026-04-17 21:45 53.06160 -1.90828 15169 ft 299 kts 312°
2026-04-17 21:45 53.07680 -1.93176 14684 ft 297 kts 312°
2026-04-17 21:45 53.09177 -1.95502 14204 ft 294 kts 312°
2026-04-17 21:45 53.10675 -1.97845 13701 ft 292 kts 312°
2026-04-17 21:46 53.12146 -2.00159 13170 ft 290 kts 312°
2026-04-17 21:46 53.13593 -2.02440 12654 ft 288 kts 312°
2026-04-17 21:46 53.15039 -2.04730 12145 ft 286 kts 312°
2026-04-17 21:46 53.16489 -2.07028 11634 ft 283 kts 312°
2026-04-17 21:47 53.17901 -2.09267 11141 ft 282 kts 312°
2026-04-17 21:47 53.19325 -2.11531 10650 ft 279 kts 312°
2026-04-17 21:47 53.20211 -2.13097 10292 ft 276 kts 307°
2026-04-17 21:47 53.21255 -2.15267 9845 ft 272 kts 304°
2026-04-17 21:48 53.22406 -2.17798 9308 ft 270 kts 303°
2026-04-17 21:48 53.23514 -2.20283 8787 ft 267 kts 303°
2026-04-17 21:48 53.24601 -2.22756 8275 ft 264 kts 303°
2026-04-17 21:48 53.25673 -2.25225 7775 ft 261 kts 303°
2026-04-17 21:49 53.26719 -2.27665 7280 ft 258 kts 303°
2026-04-17 21:49 53.27750 -2.30093 6794 ft 256 kts 303°
2026-04-17 21:49 53.28769 -2.32524 6294 ft 254 kts 303°
2026-04-17 21:49 53.29770 -2.34929 5778 ft 252 kts 303°
2026-04-17 21:50 53.30770 -2.37336 5275 ft 250 kts 303°
2026-04-17 21:50 53.31760 -2.39717 4768 ft 248 kts 303°
2026-04-17 21:50 53.32732 -2.42055 4257 ft 246 kts 303°
2026-04-17 21:50 53.33717 -2.44409 3749 ft 241 kts 303°
2026-04-17 21:51 53.34593 -2.46549 3200 ft 205 kts 295°
2026-04-17 21:51 53.34951 -2.48891 2589 ft 215 kts 272°
2026-04-17 21:51 53.34932 -2.51425 2103 ft 218 kts 266°
2026-04-17 21:51 53.34828 -2.53892 2097 ft 206 kts 265°
2026-04-17 21:52 53.34733 -2.56228 2088 ft 200 kts 265°
2026-04-17 21:52 53.34624 -2.58532 2093 ft 196 kts 265°
2026-04-17 21:52 53.34516 -2.60801 2094 ft 195 kts 265°
2026-04-17 21:52 53.34414 -2.63033 2089 ft 194 kts 264°
2026-04-17 21:53 53.34309 -2.65297 2085 ft 194 kts 265°
2026-04-17 21:53 53.34207 -2.67556 1979 ft 197 kts 265°
2026-04-17 21:53 53.34114 -2.69670 1778 ft 149 kts 264°
2026-04-17 21:53 53.34040 -2.71180 1579 ft 120 kts 266°
2026-04-17 21:54 53.33986 -2.72567 1394 ft 123 kts 266°
2026-04-17 21:54 53.33916 -2.74021 1228 ft 127 kts 265°
2026-04-17 21:54 53.33845 -2.75506 1050 ft 132 kts 266°
2026-04-17 21:54 53.33773 -2.77057 859 ft 135 kts 268°
2026-04-17 21:55 53.33700 -2.78661 666 ft 138 kts 267°
2026-04-17 21:55 53.33592 -2.80282 483 ft 144 kts 259°
2026-04-17 21:55 53.33487 -2.81964 269 ft 148 kts 265°
2026-04-17 21:55 53.33430 -2.83563 102 ft 116 kts 262°
2026-04-17 21:56 53.33379 -2.84595 84 ft 52 kts 266°
2026-04-17 21:56 53.33396 -2.84726 85 ft 12 kts 90°
2026-04-17 21:56 53.33417 -2.84539 86 ft 20 kts 66°
2026-04-17 21:56 53.33499 -2.84300 86 ft 27 kts 53°
2026-04-17 21:57 53.33572 -2.84032 86 ft 14 kts 91°
2026-04-17 21:57 53.33578 -2.83826 86 ft 21 kts 72°
2026-04-17 21:57 53.33653 -2.83764 86 ft 14 kts 88°
2026-04-17 21:57 53.33672 -2.83713 86 ft 11 kts 252°
2026-04-17 21:58 53.33686 -2.83777 86 ft 9 kts 93°
2026-04-17 21:58 53.33684 -2.83746 86 ft 0 kts 83°